Location: ??????????
(54.7560°N, 39.1389°E)
Time: 01:54:33
(UTC+00:00)

Cosmos 1980 - Pass Details

Date: 19 May 2025
Orbit: 837 x 846 km, 71.0° (Epoch: 14 June)

Event Time Altitude Azimuth Distance (km) Brightness Sun altitude
Rises 23:04:50 0° 326° (NW) 3,421 7.3 -12.0°
Reaches altitude 10° 23:07:18 10° 325° (NW) 2,481 6.5 -11.8°
Maximum altitude 23:12:59 77° 241° (WSW) 873 3.7 -11.5°
Drops below altitude 10° 23:18:38 10° 156° (SSE) 2,461 5.8 -11.1°
Sets 23:21:04 0° 155° (SSE) 3,390 6.5 -10.9°
